GW4366 Weather Reports


time (UTC)temp
C
wind
direction
speed
KPH
gust
KPH
rain 1hr
cm
rain 24hr
cm
rain mn
cm
humidity
%
barometer
mb
20260906050006 26 40 0.0 0.0 0.00 0.00 0.00 79 987.3
20260906043005 27 343 0.0 0.0 0.00 0.00 0.00 78 987.3
20260906040005 27 4 0.0 1.6 0.00 0.00 0.00 79 987.2
20260906030009 28 320 3.2 6.4 0.00 0.00 0.00 73 987.3
20260906023003 28 359 0.0 0.0 0.00 0.00 0.00 74 987.0
20260906020007 29 359 0.0 0.0 0.00 0.00 0.00 71 986.7
20260906013016 30 359 0.0 0.0 0.00 0.00 0.00 69 986.5
20260906010006 30 359 0.0 0.0 0.00 0.00 0.00 66 986.1
20260906003008 31 359 0.0 0.0 0.00 0.00 0.00 64 986.1
20260906000004 33 359 0.0 0.0 0.00 0.00 0.00 60 986.6
20260905233004 35 345 0.0 6.4 0.00 0.00 0.00 59 986.6
20260905223003 36 81 0.0 6.4 0.00 0.00 0.00 55 986.2
20260905220016 36 318 1.6 4.8 0.00 0.00 0.00 52 986.2
20260905213006 36 287 0.0 8.0 0.00 0.00 0.00 50 986.2
20260905210008 35 179 1.6 8.0 0.00 0.00 0.00 55 986.4
20260905203005 36 37 0.0 4.8 0.00 0.00 0.00 54 986.8
20260905200013 35 66 0.0 3.2 0.00 0.00 0.00 55 987.2
20260905193011 37 91 0.0 8.0 0.00 0.08 0.00 51 987.7
20260905190007 37 95 0.0 6.4 0.00 0.08 0.00 54 987.9
20260905183004 35 153 0.0 6.4 0.00 0.30 0.00 57 988.3
20260905170011 34 220 3.2 14.5 0.00 0.30 0.00 63 989.0
20260905163002 33 216 1.6 8.0 0.00 0.30 0.00 62 989.2
20260905160004 33 88 0.0 4.8 0.00 0.30 0.00 66 989.5
20260905153004 32 63 0.0 4.8 0.00 0.30 0.00 68 989.7
20260905150006 31 118 0.0 1.6 0.00 0.30 0.00 73 989.8
20260905143001 28 219 0.0 0.0 0.00 0.30 0.00 77 990.0
20260905140010 27 89 0.0 0.0 0.00 0.30 0.00 84 989.9
20260905113001 22 43 0.0 0.0 0.00 0.30 0.00 90 989.1
20260905110003 22 43 0.0 0.0 0.00 0.30 0.00 91 989.1
20260905103028 23 43 0.0 0.0 0.00 0.30 0.00 90 988.8
20260905100003 23 43 0.0 0.0 0.00 0.30 0.00 91 988.6
20260905093010 23 43 0.0 0.0 0.00 0.30 0.00 90 988.4
20260905090003 23 43 0.0 0.0 0.00 0.30 0.00 89 988.1
20260905083003 23 43 0.0 0.0 0.00 0.30 0.00 88 987.9
20260905080011 23 43 0.0 0.0 0.00 0.30 0.00 89 988.2
20260905073015 24 43 0.0 0.0 0.00 0.30 0.00 88 988.3
20260905070005 24 43 0.0 0.0 0.00 0.30 0.00 87 988.4
20260905053002 25 68 0.0 0.0 0.00 0.30 0.00 86 988.7